[[{"header":{"parameterUnit":"m.s-1","parameterCategory":1,"la1":30.2991,"la2":30.254,"lo1":-89.0895,"lo2":-89.0444,"dy":0.0017,"dx":0.0017,"nx":28,"ny":28,"refTime":"2026-02-26T09:00:00:Z","depth":0,"parameterNumber":2,"parameterNumberName":"U-component_of_WINDS"},"data":[0,0,0,0,0,0,0,0,0,0,0,0,0,0,0,0,0,0,0,0,0,0,0,0,0,0,0,0,0,0,0,0,0,0,0,0,0,0,0,0,0,0,0,0,0,0,0,0,0,0,0,0,0,0,0,0,0,0,-1.8104,-1.8104,0,-1.8116,-1.8116,-1.8116,-1.8127,-1.8127,-1.8127,-1.8127,-1.814,-1.814,-1.814,0,0,0,0,0,0,0,0,0,0,0,0,0,-1.8091,-1.8091,-1.8104,-1.8104,-1.8104,-1.8116,-1.8116,-1.8116,-1.8127,-1.8127,-1.8127,-1.8127,-1.8139,-1.814,-1.814,0,0,0,0,0,0,0,0,0,0,0,0,0,-1.8099,-1.8092,-1.8104,-1.8111,-1.8112,-1.8115,-1.8116,-1.8116,-1.8127,-1.8127,-1.8127,-1.8127,-1.8139,-1.814,-1.814,-1.8138,0,0,-1.8141,-1.8141,0,0,0,0,0,0,0,0,-1.8099,-1.81,-1.811,-1.8111,-1.8111,-1.812,-1.8116,-1.8123,-1.8127,-1.8121,-1.8127,-1.8127,-1.8133,-1.8134,-1.8135,-1.8139,-1.8139,-1.8141,-1.8141,-1.8141,-1.8141,0,0,0,0,0,0,0,-1.8098,-1.8099,-1.8109,-1.811,-1.8111,-1.8114,-1.8115,-1.8117,-1.8126,-1.8122,-1.8122,-1.8123,-1.8133,-1.8135,-1.8136,-1.8139,-1.8141,-1.8141,-1.8141,-1.8142,-1.8139,-1.8139,0,0,0,0,0,0,-1.8097,-1.8099,-1.8108,-1.8109,-1.8105,-1.8114,-1.8115,-1.8117,-1.8126,-1.8127,-1.8123,-1.8124,-1.8135,-1.8135,-1.8136,-1.8134,-1.8141,-1.8142,-1.8142,-1.814,-1.8139,-1.8139,0,0,0,0,0,0,-1.8096,-1.8097,-1.8108,-1.8104,-1.8106,-1.8114,-1.8116,-1.8117,-1.8119,-1.8127,-1.8129,-1.8124,-1.8135,-1.8136,-1.8137,-1.8134,-1.8142,-1.8142,-1.814,-1.8139,-1.8139,-1.8129,0,0,0,0,0,0,-1.8096,-1.8097,-1.8097,-1.8104,-1.8106,-1.8109,-1.8115,-1.8117,-1.8119,-1.812,-1.8128,-1.8129,-1.8135,-1.8136,-1.8137,-1.8135,-1.8142,-1.814,-1.814,-1.8139,-1.8129,-1.8128,-1.8127,0,0,0,0,0,-1.8095,-1.8094,-1.8097,-1.8098,-1.8105,-1.8108,-1.8109,-1.8116,-1.8119,-1.8119,-1.8123,-1.8129,-1.8134,-1.8137,-1.8138,-1.8135,-1.814,-1.814,-1.8139,-1.813,-1.8128,-1.8127,0,0,0,0,0,0,-1.8087,-1.8095,-1.8098,-1.8099,-1.8103,-1.811,-1.811,-1.8114,-1.8118,-1.8118,-1.8126,-1.8128,-1.8128,-1.8132,-1.8134,-1.8133,-1.8138,-1.8138,-1.813,-1.8129,-1.8128,-1.8127,-1.8143,0,0,0,0,0,-1.8085,-1.8087,-1.8094,-1.8094,-1.8095,-1.8102,-1.8104,-1.8108,-1.8113,-1.8114,-1.812,-1.8124,-1.8126,-1.8128,-1.813,-1.8129,-1.8131,-1.8128,-1.8127,-1.8126,-1.8126,-1.8124,-1.8123,-1.8137,-1.8137,-1.8137,0,0,-1.8082,-1.8086,-1.8087,-1.8092,-1.8096,-1.8097,-1.8104,-1.8105,-1.8106,-1.8115,-1.8116,-1.8119,-1.8124,-1.8124,-1.8124,-1.8127,-1.8122,-1.8125,-1.8124,-1.8125,-1.8123,-1.8122,-1.8121,-1.8137,-1.8137,-1.8137,0,0,-1.8076,-1.808,-1.808,-1.8082,-1.8087,-1.8091,-1.8091,-1.8097,-1.81,-1.8101,-1.8107,-1.8108,-1.8112,-1.8115,-1.8117,-1.811,-1.8115,-1.811,-1.8104,-1.8103,-1.8102,-1.8101,-1.8098,-1.8096,-1.811,-1.811,-1.811,0,-1.8071,-1.8074,-1.8079,-1.808,-1.8082,-1.8088,-1.8088,-1.809,-1.8096,-1.8097,-1.81,-1.8104,-1.8108,-1.8108,-1.8106,-1.8107,-1.8107,-1.811,-1.8101,-1.81,-1.81,-1.8097,-1.8096,-1.8109,-1.811,-1.811,-1.811,0,-1.8067,-1.8068,-1.8068,-1.8072,-1.8073,-1.8074,-1.8079,-1.8079,-1.8083,-1.8087,-1.8087,-1.8091,-1.8094,-1.8094,-1.8099,-1.8094,-1.8096,-1.81,-1.8106,-1.8098,-1.8095,-1.8094,-1.8109,-1.8109,-1.8109,-1.8109,0,0,-1.8058,-1.8064,-1.8064,-1.8065,-1.807,-1.8071,-1.807,-1.8073,-1.8073,-1.8076,-1.8076,-1.8078,-1.8081,-1.8083,-1.8087,-1.8086,-1.8079,-1.809,-1.809,-1.8087,-1.8073,-1.8071,-1.8069,-1.8081,-1.8081,-1.8081,-1.8073,0,-1.8054,-1.8054,-1.8058,-1.8056,-1.8057,-1.8062,-1.8062,-1.8064,-1.8067,-1.8068,-1.8071,-1.8072,-1.8077,-1.8078,-1.8076,-1.808,-1.8076,-1.808,-1.8081,-1.8081,-1.808,-1.8068,-1.8065,-1.8058,-1.8072,-1.8072,-1.8072,0,-1.8048,-1.805,-1.8048,-1.8051,-1.8052,-1.8052,-1.8053,-1.8054,-1.8056,-1.8058,-1.8059,-1.8063,-1.8063,-1.8067,-1.8066,-1.8069,-1.8069,-1.807,-1.807,-1.8071,-1.8076,-1.8068,-1.8055,-1.8054,-1.807,-1.807,-1.807,0,-1.8042,-1.8043,-1.8042,-1.8043,-1.8047,-1.8046,-1.8048,-1.805,-1.8051,-1.8052,-1.8052,-1.8054,-1.8054,-1.8055,-1.8059,-1.8062,-1.8057,-1.8062,-1.8058,-1.8058,-1.8058,-1.8058,-1.8044,-1.8057,-1.8057,-1.8057,-1.8057,0,-1.8036,-1.8035,-1.8039,-1.8039,-1.8037,-1.8041,-1.8039,-1.8041,-1.8043,-1.8043,-1.8047,-1.8046,-1.8051,-1.8051,-1.8054,-1.8052,-1.8052,-1.8053,-1.8054,-1.8053,-1.8053,-1.8054,-1.8055,-1.8057,-1.8057,-1.8057,-1.8057,0,-1.8029,-1.8032,-1.8031,-1.8034,-1.8034,-1.8033,-1.8035,-1.8034,-1.8037,-1.8036,-1.8036,-1.8039,-1.8039,-1.8042,-1.8043,-1.8045,-1.8041,-1.8043,-1.8041,-1.8041,-1.8037,-1.8038,-1.8025,-1.8023,-1.8036,-1.8036,-1.8036,0,-1.8025,-1.8024,-1.8026,-1.8026,-1.8027,-1.8027,-1.8027,-1.803,-1.803,-1.8032,-1.8031,-1.803,-1.8031,-1.803,-1.8032,-1.8032,-1.8034,-1.8029,-1.8034,-1.8032,-1.8033,-1.8034,-1.8033,-1.8028,-1.8028,-1.8028,-1.8028,0,-1.8019,-1.8019,-1.802,-1.8019,-1.8019,-1.802,-1.802,-1.802,-1.8023,-1.8023,-1.8022,-1.8022,-1.8021,-1.8021,-1.8021,-1.8022,-1.8025,-1.8026,-1.8025,-1.8025,-1.8023,-1.8023,-1.8038,-1.8027,-1.8027,-1.8027,-1.8027,-1.8027,-1.8013,-1.8012,-1.8013,-1.8012,-1.8013,-1.8012,-1.8012,-1.8013,-1.8012,-1.8012,-1.8014,-1.8013,-1.8013,-1.8013,-1.8014,-1.8013,-1.8015,-1.8014,-1.8013,-1.8013,-1.8012,-1.8022,-1.8013,-1.8013,-1.8013,-1.8013,-1.8013,0,-1.8006,-1.8007,-1.8006,-1.8006,-1.8005,-1.8007,-1.8007,-1.8007,-1.8005,-1.8005,-1.8005,-1.8003,-1.8002,-1.8004,-1.8003,-1.8001,-1.8003,-1.8001,-1.8001,-1.8001,-1.8011,-1.8011,-1.8,-1.8,-1.8,-1.8,-1.8,-1.8,-1.8003,-1.8001,-1.8001,-1.7999,-1.7999,-1.7998,-1.7997,-1.7997,-1.7997,-1.7995,-1.7994,-1.7995,-1.7995,-1.7994,-1.7992,-1.7993,-1.7992,-1.799,-1.7991,-1.8,-1.8001,-1.8002,-1.8003,-1.799,-1.799,-1.7982,-1.7982,-1.7982]},{"header":{"parameterUnit":"m.s-1","parameterCategory":1,"la1":30.2991,"la2":30.254,"lo1":-89.0895,"lo2":-89.0444,"dy":0.0017,"dx":0.0017,"nx":28,"ny":28,"refTime":"2026-02-26T09:00:00:Z","depth":0,"parameterNumber":3,"parameterNumberName":"V-component_of_WINDS"},"data":[0,0,0,0,0,0,0,0,0,0,0,0,0,0,0,0,0,0,0,0,0,0,0,0,0,0,0,0,0,0,0,0,0,0,0,0,0,0,0,0,0,0,0,0,0,0,0,0,0,0,0,0,0,0,0,0,0,0,-2.6063,-2.6062,0,-2.5986,-2.5986,-2.5985,-2.5903,-2.5901,-2.59,-2.5899,-2.582,-2.5819,-2.5818,0,0,0,0,0,0,0,0,0,0,0,0,0,-2.6136,-2.6135,-2.6063,-2.6062,-2.6061,-2.5987,-2.5986,-2.5985,-2.5903,-2.5901,-2.59,-2.5899,-2.582,-2.5819,-2.5818,0,0,0,0,0,0,0,0,0,0,0,0,0,-2.6087,-2.6135,-2.6063,-2.6011,-2.6006,-2.5987,-2.5986,-2.5984,-2.5903,-2.5901,-2.59,-2.5898,-2.5821,-2.5819,-2.5818,-2.5843,0,0,-2.5813,-2.5812,0,0,0,0,0,0,0,0,-2.6089,-2.6084,-2.602,-2.6015,-2.6009,-2.5952,-2.5982,-2.5937,-2.5904,-2.5942,-2.5899,-2.5897,-2.5865,-2.586,-2.585,-2.584,-2.5836,-2.5813,-2.5812,-2.5811,-2.5811,0,0,0,0,0,0,0,-2.6093,-2.6087,-2.6032,-2.6019,-2.6012,-2.5991,-2.5982,-2.5973,-2.5914,-2.5939,-2.5932,-2.5925,-2.5862,-2.5851,-2.5847,-2.5835,-2.5813,-2.5812,-2.5811,-2.581,-2.5841,-2.5843,0,0,0,0,0,0,-2.6104,-2.609,-2.6035,-2.603,-2.6046,-2.5991,-2.5981,-2.5972,-2.5914,-2.5904,-2.5926,-2.5921,-2.5855,-2.5849,-2.5844,-2.5869,-2.5811,-2.581,-2.5809,-2.5839,-2.5842,-2.5843,0,0,0,0,0,0,-2.6106,-2.61,-2.6038,-2.6058,-2.6049,-2.5992,-2.5982,-2.5972,-2.5961,-2.5905,-2.5894,-2.5926,-2.5853,-2.5846,-2.5844,-2.5865,-2.5809,-2.5808,-2.5837,-2.584,-2.5843,-2.5921,0,0,0,0,0,0,-2.6109,-2.6101,-2.6111,-2.6059,-2.6048,-2.604,-2.5984,-2.5971,-2.5958,-2.5951,-2.5902,-2.5892,-2.5851,-2.5847,-2.5843,-2.5862,-2.5807,-2.5835,-2.5839,-2.5842,-2.5916,-2.5926,-2.5934,0,0,0,0,0,-2.6112,-2.6136,-2.6112,-2.6106,-2.6059,-2.6041,-2.6035,-2.5988,-2.5961,-2.5969,-2.5933,-2.5894,-2.5864,-2.5847,-2.5842,-2.5862,-2.5834,-2.5838,-2.5841,-2.5912,-2.5924,-2.5934,0,0,0,0,0,0,-2.6191,-2.6128,-2.6101,-2.6109,-2.6081,-2.6028,-2.6037,-2.6002,-2.5981,-2.5975,-2.5917,-2.5906,-2.5911,-2.5886,-2.5868,-2.5883,-2.5843,-2.5846,-2.5899,-2.591,-2.5918,-2.5924,-2.5805,0,0,0,0,0,-2.621,-2.6202,-2.6147,-2.6159,-2.6147,-2.6095,-2.6085,-2.6051,-2.602,-2.6007,-2.5971,-2.5942,-2.5926,-2.5916,-2.5898,-2.5912,-2.59,-2.5923,-2.5932,-2.594,-2.5943,-2.5948,-2.5957,-2.5856,-2.5856,-2.5856,0,0,-2.6248,-2.6213,-2.6211,-2.6174,-2.6149,-2.6141,-2.6085,-2.6079,-2.6072,-2.6006,-2.6002,-2.5975,-2.5938,-2.5944,-2.5944,-2.5923,-2.5968,-2.5945,-2.5952,-2.595,-2.5953,-2.5962,-2.5971,-2.5859,-2.5859,-2.5858,0,0,-2.6314,-2.6286,-2.6293,-2.6269,-2.6231,-2.6196,-2.6198,-2.6149,-2.6129,-2.6123,-2.6074,-2.6064,-2.6038,-2.6014,-2.5998,-2.6054,-2.6016,-2.605,-2.6097,-2.6102,-2.611,-2.6117,-2.6136,-2.6143,-2.6053,-2.6053,-2.6054,0,-2.6366,-2.6352,-2.6302,-2.6298,-2.6283,-2.6224,-2.623,-2.6209,-2.6167,-2.6158,-2.6135,-2.61,-2.6071,-2.607,-2.6084,-2.6073,-2.6073,-2.6055,-2.6113,-2.6119,-2.6125,-2.6142,-2.615,-2.6058,-2.6057,-2.6057,-2.6056,0,-2.6417,-2.6409,-2.6419,-2.638,-2.6366,-2.6368,-2.6318,-2.631,-2.6277,-2.6245,-2.624,-2.6203,-2.6176,-2.6174,-2.6142,-2.6168,-2.6156,-2.6124,-2.6083,-2.6139,-2.6155,-2.6161,-2.6064,-2.6062,-2.6061,-2.606,0,0,-2.653,-2.6464,-2.6468,-2.645,-2.6403,-2.6395,-2.6394,-2.6368,-2.6362,-2.6335,-2.6332,-2.6311,-2.6281,-2.6264,-2.6228,-2.6233,-2.6279,-2.62,-2.6198,-2.6215,-2.6304,-2.6328,-2.6337,-2.6254,-2.6255,-2.6256,-2.6307,0,-2.6587,-2.6581,-2.6536,-2.6543,-2.6534,-2.6477,-2.6476,-2.6447,-2.6417,-2.6404,-2.637,-2.6356,-2.6318,-2.6307,-2.6309,-2.6273,-2.6296,-2.6268,-2.6249,-2.6249,-2.626,-2.6345,-2.637,-2.642,-2.6313,-2.6314,-2.6314,0,-2.6652,-2.6629,-2.6636,-2.6589,-2.6583,-2.6583,-2.6555,-2.6544,-2.651,-2.6488,-2.6468,-2.6428,-2.6423,-2.6385,-2.6376,-2.6359,-2.6348,-2.633,-2.633,-2.6326,-2.6285,-2.6342,-2.6435,-2.6443,-2.6324,-2.6323,-2.6322,0,-2.6732,-2.6704,-2.6703,-2.6689,-2.6635,-2.6636,-2.6613,-2.6578,-2.6565,-2.6541,-2.6532,-2.6507,-2.6494,-2.6475,-2.643,-2.6407,-2.6426,-2.6385,-2.6407,-2.6408,-2.6413,-2.6413,-2.6505,-2.6408,-2.6408,-2.6407,-2.6407,0,-2.68,-2.6806,-2.6739,-2.6739,-2.6744,-2.6692,-2.6698,-2.6669,-2.6638,-2.6631,-2.658,-2.6575,-2.6515,-2.6503,-2.6467,-2.6465,-2.6459,-2.644,-2.6431,-2.6444,-2.6447,-2.6436,-2.6431,-2.6409,-2.6409,-2.6409,-2.6408,0,-2.689,-2.6846,-2.6842,-2.6791,-2.6778,-2.6784,-2.674,-2.6737,-2.6704,-2.6696,-2.6691,-2.6638,-2.6621,-2.6574,-2.6544,-2.652,-2.6527,-2.651,-2.6539,-2.6533,-2.6557,-2.6555,-2.6645,-2.6653,-2.6552,-2.6553,-2.6554,0,-2.6936,-2.6939,-2.6889,-2.688,-2.686,-2.6848,-2.6834,-2.6783,-2.6771,-2.6732,-2.6735,-2.6713,-2.6693,-2.6668,-2.6626,-2.6603,-2.6584,-2.6617,-2.658,-2.6594,-2.6584,-2.6584,-2.6583,-2.6625,-2.6626,-2.6628,-2.6629,0,-2.7021,-2.6999,-2.6982,-2.6958,-2.6943,-2.6922,-2.6897,-2.6893,-2.6835,-2.6824,-2.6806,-2.6791,-2.676,-2.6739,-2.671,-2.6685,-2.6647,-2.6641,-2.6644,-2.6658,-2.6675,-2.6665,-2.656,-2.6639,-2.6638,-2.6637,-2.6636,-2.6636,-2.709,-2.709,-2.7054,-2.7037,-2.7013,-2.6991,-2.6986,-2.6952,-2.6936,-2.6908,-2.6878,-2.6863,-2.6828,-2.6784,-2.6763,-2.675,-2.673,-2.6735,-2.6737,-2.6739,-2.6745,-2.6677,-2.6744,-2.6744,-2.6744,-2.6743,-2.6743,0,-2.7171,-2.7146,-2.7131,-2.7098,-2.7084,-2.705,-2.7021,-2.7011,-2.6999,-2.697,-2.6951,-2.693,-2.6909,-2.6867,-2.6842,-2.684,-2.6822,-2.6835,-2.6834,-2.6829,-2.6764,-2.6763,-2.685,-2.685,-2.685,-2.685,-2.685,-2.685,-2.7212,-2.7211,-2.7184,-2.717,-2.7144,-2.7129,-2.7115,-2.7094,-2.7071,-2.7049,-2.7032,-2.7005,-2.697,-2.6942,-2.6922,-2.6909,-2.6902,-2.6921,-2.6904,-2.6844,-2.6834,-2.6824,-2.6823,-2.6921,-2.6921,-2.6969,-2.697,-2.697]}]]